• In Russia
  • List of Countries
  • For 7 days
  • Water Temperature
  • Satellite Maps
  • Weather Map
  • Weather Widgets
  • user-avatar
    Login

    Hourly Weather Nakhchivan

    Today, 26 September, Tuesday

    Time Temperature Precipitation Wind Pressure Humidity
    00:00 +21°C° 0 mm 2 mps 690 mmHg 51%
    01:00 +22°C° 0 mm 1 mps 689 mmHg 52%
    02:00 +21°C° 0 mm 1 mps 689 mmHg 54%
    03:00 +21°C° 0 mm 1 mps 689 mmHg 55%
    04:00 +20°C° 0 mm 1 mps 689 mmHg 56%
    05:00 +20°C° 0 mm 1 mps 689 mmHg 57%
    06:00 +19°C° 0 mm 1 mps 689 mmHg 57%
    07:00 +21°C° 0 mm 1 mps 689 mmHg 49%
    08:00 +23°C° 0 mm 1 mps 689 mmHg 42%
    09:00 +25°C° 0 mm 1 mps 689 mmHg 34%
    10:00 +26°C° 0 mm 1 mps 689 mmHg 30%
    11:00 +27°C° 0 mm 1 mps 689 mmHg 26%
    12:00 +29°C° 0 mm 2 mps 689 mmHg 22%
    13:00 +29°C° 0 mm 2 mps 689 mmHg 21%
    14:00 +29°C° 0 mm 2 mps 688 mmHg 20%
    15:00 +30°C° 0 mm 2 mps 688 mmHg 19%
    16:00 +29°C° 0 mm 2 mps 688 mmHg 22%
    17:00 +28°C° 0 mm 2 mps 688 mmHg 24%
    18:00 +27°C° 0 mm 2 mps 688 mmHg 27%
    19:00 +26°C° 0 mm 2 mps 688 mmHg 31%
    20:00 +25°C° 0 mm 2 mps 688 mmHg 36%
    21:00 +24°C° 0 mm 2 mps 688 mmHg 40%
    22:00 +23°C° 0 mm 2 mps 688 mmHg 42%
    23:00 +23°C° 0 mm 2 mps 688 mmHg 44%

    Tomorrow, 27 September, Wednesday

    Time Temperature Precipitation Wind Pressure Humidity
    00:00 +23°C° 0 mm 2 mps 688 mmHg 47%
    01:00 +21°C° 0 mm 2 mps 688 mmHg 48%
    02:00 +22°C° 0 mm 1 mps 688 mmHg 49%
    03:00 +21°C° 0 mm 1 mps 688 mmHg 51%
    04:00 +21°C° 0 mm 1 mps 687 mmHg 52%
    05:00 +20°C° 0 mm 1 mps 687 mmHg 54%
    06:00 +20°C° 0 mm 1 mps 687 mmHg 55%
    07:00 +22°C° 0 mm 1 mps 688 mmHg 50%
    08:00 +23°C° 0 mm 1 mps 688 mmHg 45%
    09:00 +25°C° 0 mm 1 mps 688 mmHg 39%
    10:00 +26°C° 0 mm 2 mps 688 mmHg 35%
    11:00 +27°C° 0 mm 2 mps 688 mmHg 31%
    12:00 +29°C° 0 mm 2 mps 688 mmHg 27%
    13:00 +29°C° 0 mm 3 mps 687 mmHg 26%
    14:00 +30°C° 0 mm 3 mps 687 mmHg 24%
    15:00 +32°C° 0 mm 4 mps 687 mmHg 22%
    16:00 +29°C° 0 mm 4 mps 686 mmHg 25%
    17:00 +28°C° 0 mm 3 mps 686 mmHg 29%
    18:00 +27°C° 0 mm 3 mps 686 mmHg 32%
    19:00 +26°C° 0 mm 3 mps 687 mmHg 36%
    20:00 +25°C° 0 mm 3 mps 687 mmHg 40%
    21:00 +24°C° 0 mm 3 mps 687 mmHg 45%
    22:00 +23°C° 0 mm 2 mps 687 mmHg 47%
    23:00 +21°C° 0 mm 2 mps 687 mmHg 49%

    Day after tomorrow, 28 September, Thursday

    Time Temperature Precipitation Wind Pressure Humidity
    00:00 +21°C° 0 mm 2 mps 687 mmHg 52%
    01:00 +20°C° 0 mm 2 mps 687 mmHg 54%
    02:00 +20°C° 0 mm 2 mps 687 mmHg 55%
    03:00 +19°C° 0 mm 2 mps 687 mmHg 57%
    04:00 +19°C° 0 mm 2 mps 687 mmHg 58%
    05:00 +19°C° 0 mm 1 mps 687 mmHg 60%
    06:00 +19°C° 0 mm 1 mps 687 mmHg 61%
    07:00 +19°C° 0 mm 2 mps 687 mmHg 55%
    08:00 +21°C° 0 mm 2 mps 688 mmHg 49%
    09:00 +23°C° 0 mm 2 mps 688 mmHg 43%
    10:00 +25°C° 0 mm 2 mps 688 mmHg 39%
    11:00 +26°C° 0 mm 3 mps 688 mmHg 35%
    12:00 +27°C° 0 mm 3 mps 688 mmHg 30%
    13:00 +28°C° 0 mm 4 mps 688 mmHg 29%
    14:00 +28°C° 0 mm 4 mps 687 mmHg 28%
    15:00 +29°C° 0 mm 5 mps 687 mmHg 27%
    16:00 +27°C° 0 mm 4 mps 687 mmHg 31%
    17:00 +26°C° 0 mm 4 mps 687 mmHg 35%
    18:00 +25°C° 0 mm 3 mps 688 mmHg 39%
    19:00 +24°C° 0 mm 3 mps 688 mmHg 43%
    20:00 +22°C° 0 mm 3 mps 688 mmHg 47%
    21:00 +21°C° 0 mm 3 mps 689 mmHg 50%
    22:00 +20°C° 0 mm 3 mps 689 mmHg 52%
    23:00 +20°C° 0 mm 3 mps 689 mmHg 53%

    29 September, Friday

    Time Temperature Precipitation Wind Pressure Humidity
    00:00 +19°C° 0 mm 2 mps 689 mmHg 55%
    01:00 +19°C° 0 mm 2 mps 689 mmHg 56%
    02:00 +18°C° 0 mm 2 mps 689 mmHg 58%
    03:00 +18°C° 0 mm 2 mps 689 mmHg 59%
    04:00 +18°C° 0 mm 2 mps 689 mmHg 60%
    05:00 +17°C° 0 mm 2 mps 689 mmHg 62%
    06:00 +18°C° 0 mm 1 mps 689 mmHg 63%
    07:00 +18°C° 0 mm 2 mps 689 mmHg 57%
    08:00 +20°C° 0 mm 2 mps 690 mmHg 52%
    09:00 +21°C° 0 mm 2 mps 690 mmHg 46%
    10:00 +22°C° 0 mm 3 mps 690 mmHg 42%
    11:00 +25°C° 0 mm 3 mps 689 mmHg 38%
    12:00 +26°C° 0 mm 4 mps 689 mmHg 34%
    13:00 +27°C° 0 mm 4 mps 689 mmHg 32%
    14:00 +27°C° 0 mm 4 mps 688 mmHg 30%
    15:00 +28°C° 0 mm 5 mps 688 mmHg 27%
    16:00 +27°C° 0 mm 4 mps 688 mmHg 30%
    17:00 +26°C° 0 mm 4 mps 688 mmHg 32%
    18:00 +25°C° 0 mm 4 mps 687 mmHg 35%
    19:00 +24°C° 0 mm 3 mps 687 mmHg 39%
    20:00 +22°C° 0 mm 3 mps 687 mmHg 42%
    21:00 +21°C° 0 mm 3 mps 687 mmHg 46%
    22:00 +20°C° 0 mm 3 mps 687 mmHg 47%
    23:00 +20°C° 0 mm 2 mps 687 mmHg 49%

    30 September, Saturday

    Time Temperature Precipitation Wind Pressure Humidity
    00:00 +19°C° 0 mm 2 mps 687 mmHg 50%
    01:00 +19°C° 0 mm 2 mps 687 mmHg 51%
    02:00 +18°C° 0 mm 2 mps 686 mmHg 51%
    03:00 +19°C° 0 mm 1 mps 686 mmHg 52%
    04:00 +19°C° 0 mm 1 mps 686 mmHg 52%
    05:00 +18°C° 0 mm 1 mps 686 mmHg 53%
    06:00 +18°C° 0 mm 1 mps 686 mmHg 53%
    07:00 +20°C° 0 mm 1 mps 686 mmHg 48%
    08:00 +22°C° 0 mm 1 mps 686 mmHg 43%
    09:00 +23°C° 0 mm 1 mps 686 mmHg 38%
    10:00 +24°C° 0.2 mm 2 mps 686 mmHg 36%
    11:00 +26°C° 0.2 mm 2 mps 686 mmHg 33%
    12:00 +27°C° 0.2 mm 2 mps 685 mmHg 31%
    13:00 +27°C° 0.2 mm 3 mps 685 mmHg 31%
    14:00 +27°C° 0.2 mm 3 mps 684 mmHg 30%
    15:00 +28°C° 0.2 mm 4 mps 684 mmHg 30%
    16:00 +27°C° 0.1 mm 4 mps 684 mmHg 32%
    17:00 +25°C° 0.1 mm 3 mps 684 mmHg 35%
    18:00 +24°C° 0.1 mm 3 mps 684 mmHg 38%
    19:00 +23°C° 0 mm 2 mps 685 mmHg 40%
    20:00 +23°C° 0 mm 2 mps 685 mmHg 42%
    21:00 +22°C° 0 mm 1 mps 686 mmHg 45%
    22:00 +21°C° 0 mm 1 mps 686 mmHg 45%
    23:00 +21°C° 0 mm 1 mps 686 mmHg 46%

    1 October, Sunday

    Time Temperature Precipitation Wind Pressure Humidity
    00:00 +21°C° 0 mm 1 mps 686 mmHg 46%
    01:00 +20°C° 0 mm 1 mps 686 mmHg 47%
    02:00 +20°C° 0 mm 1 mps 686 mmHg 47%
    03:00 +19°C° 0 mm 1 mps 686 mmHg 47%
    04:00 +19°C° 0 mm 1 mps 686 mmHg 48%
    05:00 +19°C° 0 mm 1 mps 686 mmHg 48%
    06:00 +19°C° 0 mm 1 mps 687 mmHg 49%
    07:00 +20°C° 0 mm 1 mps 687 mmHg 45%
    08:00 +22°C° 0 mm 1 mps 687 mmHg 40%
    09:00 +24°C° 0 mm 1 mps 688 mmHg 35%
    10:00 +25°C° 0 mm 2 mps 688 mmHg 33%
    11:00 +26°C° 0 mm 2 mps 688 mmHg 31%
    12:00 +27°C° 0 mm 2 mps 688 mmHg 28%
    13:00 +27°C° 0 mm 3 mps 687 mmHg 27%
    14:00 +28°C° 0 mm 3 mps 687 mmHg 25%
    15:00 +28°C° 0 mm 3 mps 687 mmHg 24%
    16:00 +27°C° 0 mm 3 mps 687 mmHg 25%
    17:00 +26°C° 0 mm 2 mps 687 mmHg 27%
    18:00 +25°C° 0 mm 2 mps 687 mmHg 29%
    19:00 +24°C° 0 mm 2 mps 687 mmHg 30%
    20:00 +24°C° 0 mm 1 mps 687 mmHg 31%
    21:00 +23°C° 0 mm 1 mps 687 mmHg 33%
    22:00 +23°C° 0 mm 1 mps 687 mmHg 34%
    23:00 +21°C° 0 mm 2 mps 687 mmHg 35%
    Show more